{"data":{"norad_id":68667,"intl_designator":"2026-077F","name":"STARLINK-36295","alt_names":[],"object_type":"PAYLOAD","status":"ACTIVE","operator":null,"country":"US","launch_date":"2026-04-11","launch_site_code":"AFWTR","launch_vehicle":null,"mission":null,"orbit_class":"UNKNOWN","rcs_meters":null,"size_class":null,"mass_kg":null,"dimensions":null,"purposes":["comms"],"wikipedia_slug":null,"has_3d_model":false,"image_url":null,"decayed_at":null,"tle_current":{"epoch":"2026-09-18T08:49:25.727232Z","epoch_age_seconds":228434,"freshness":"STALE","line1":"1 68667U 26077F   26261.36765888  .00009494  00000+0  29602-3 0  9990","line2":"2 68667  97.2829 131.2527 0003291  86.4824 273.6795 15.33443951 24687","mean_motion":15.33443951,"eccentricity":0.0003291,"inclination_deg":97.2829,"raan_deg":131.2527,"arg_perigee_deg":86.4824,"mean_anomaly_deg":273.6795,"bstar":0.00029602,"rev_number":2468,"period_min":93.906268896293,"perigee_km":463.29403939331,"apogee_km":467.79855173845,"semimajor_km":6843.6832955659,"source":"CELESTRAK","updated_at":"2026-09-20T09:00:43.950496Z"}}}